Location: Moulis
(42.9609°N, 1.0909°E)
Time: 18:20:43
(UTC+00:00)

COSMOS 2455 - Visible Passes

Search period start: 07 March 2026 00:00
Search period end: 17 March 2026 00:00
Orbit: 899 x 909 km, 67.1° (Epoch: 7 March)

Date Brightness Start Highest point End Pass type
(mag) Time Alt. Az. Time Alt. Az. Time Alt. Az.
7 Mar 5.6 01:43:44 11° N 01:43:44 11° N 01:43:57 10° N visible
8 Mar 5.6 01:47:09 11° N 01:47:09 11° N 01:47:21 10° N visible
9 Mar 5.6 01:50:32 10° N 01:50:32 10° N 01:50:38 10° N visible
10 Mar 5.4 05:28:17 10° N 05:30:22 12° NNE 05:32:26 10° NE visible
11 Mar 5.3 05:31:22 10° N 05:34:30 14° NNE 05:37:37 10° ENE visible
12 Mar 5.2 05:34:41 10° N 05:38:35 17° NE 05:42:29 10° ENE visible
13 Mar 5.2 05:38:06 10° N 05:42:38 21° NE 05:47:08 10° E visible
14 Mar 4.9 05:41:35 10° NNW 05:46:37 27° NE 05:51:36 10° E visible
15 Mar 5.7 00:27:08 10° N 00:27:08 10° N 00:27:11 10° N visible
16 Mar 5.7 00:30:13 10° N 00:30:13 10° N 00:30:14 10° N visible
16 Mar 5.6 04:04:53 10° N 04:06:47 11° NNE 04:08:40 10° NE visible
